Regional Weather Roundup
Issued by NWS Sioux Falls, SD

Home | Current Version | Previous Version | Graphics & Text | Print | Product List | Glossary On
Versions: 1 2 3 4 5 6 7 8 9 10 11 12 13 14 15 16 17 18 19 20 21 22 23 24 25 26 27 28 29 30 31 32 33 34 35 36 37 38 39 40 41 42 43 44 45 46 47 48 49 50
000
ASUS43 KFSD 261302
RWRFSD

WEATHER ROUNDUP FOR SE SOUTH DAKOTA/SW MINNESOTA/NW IOWA
NATIONAL WEATHER SERVICE SIOUX FALLS SD
700 AM CST FRI DEC 26 2014

NOTE: "FAIR" INDICATES FEW OR NO CLOUDS BELOW 12,000 FEET WITH NO
SIGNIFICANT WEATHER AND OR OBSTRUCTIONS TO VISIBILITY.


SDZ038>040-050-052>070-261400-
SOUTHEAST SOUTH DAKOTA

CITY           SKY/WX    TMP DP  RH WIND       PRES   REMARKS
CHAMBERLAIN    NOT AVBL
HURON          CLOUDY    24  20  84 N13       30.07R WCI  12
MADISON        LGT RAIN  25  25 100 N17       30.00R WCI  11
MITCHELL       CLOUDY    26  23  88 N15       30.07R WCI  14
SIOUX FALLS    FLURRIES  26  23  88 N16       30.00R WCI  14
WINNER         FRZ RAIN  25  22  88 N16       30.05S FOG     WCI  12
YANKTON        CLOUDY    27  25  93 N17       30.01R WCI  14
$$

MNZ071-072-080-081-089-090-097-098-261400-
SOUTHWEST MINNESOTA

CITY           SKY/WX    TMP DP  RH WIND       PRES   REMARKS
FAIRMONT       CLOUDY    32  28  86 N14       29.91R WCI  22
JACKSON        CLOUDY    32  30  93 N12       29.93R WCI  23
LUVERNE        CLOUDY    30  27  86 N10G21    29.98R WCI  21
MARSHALL       CLOUDY    27  21  80 N17       30.00R WCI  14
MONTEVIDEO     CLOUDY    27  27 100 N15       30.02R WCI  15
PIPESTONE      CLOUDY    25  25 100 N10G16    29.97R WCI  15
REDWOOD FALLS  CLOUDY    30  27  88 N9G20     29.97R WCI  22
TRACY          CLOUDY    28  27  96 N14       29.99R FOG     WCI  16
WINDOM         CLOUDY    30  28  93 N18       29.95R WCI  18
WORTHINGTON    CLOUDY    27 -20  12 N16       29.95R WCI  14
$$

IAZ001>003-012>014-020>022-031-032-NEZ013-014-SDZ071-261400-
NORTHWEST IOWA

CITY           SKY/WX    TMP DP  RH WIND       PRES   REMARKS
CHEROKEE       CLOUDY    32  32 100 N10       29.92S WCI  23
DENISON        CLOUDY    32  32 100 N14G22    29.88R WCI  22
ESTHERVILLE    CLOUDY    30  30 100 N17       29.92R FOG     WCI  18
SIOUX CITY     CLOUDY    32  28  85 N18G24    29.96R WCI  20
SPENCER        CLOUDY    31  29  92 N15       29.93R WCI  20
$$

ABBREVIATIONS USED IN REMARKS
   TC - TEMPERATURE IN CELSIUS
  WCI - WIND CHILL INDEX
   HX - HEAT INDEX
  VSB - VISIBILITY



USA.gov is the U.S. government's official web portal to all federal, state and local government web resources and services.